Location: Kerguer�zec
(48.4509°N, 4.7600°W)
Time: 18:13:16
(UTC+00:00)

ARGOS - Pass Details

Date: 09 April 2020
Orbit: 820 x 834 km, 98.5° (Epoch: 25 May)

Event Time Altitude Azimuth Distance (km) Brightness Sun altitude
Rises 19:23:24 0° 151° (SSE) 3,359 5.9 -4.3°
Reaches altitude 10° 19:25:47 10° 147° (SSE) 2,427 5.1 -4.6°
Maximum altitude 19:31:02 57° 70° (ENE) 969 3.3 -5.5°
Drops below altitude 10° 19:36:18 10° 353° (N) 2,435 6.0 -6.3°
Sets 19:38:41 0° 349° (N) 3,370 6.8 -6.7°
